Regional Weather Roundup
Issued by NWS Albany, NY

Home | Current Version | Previous Version | Graphics & Text | Print | Product List | Glossary Off
Versions: 1 2 3 4 5 6 7 8 9 10 11 12 13 14 15 16 17 18 19 20 21 22 23 24 25 26 27 28 29 30 31 32 33 34 35 36 37 38 39 40 41 42 43 44 45 46 47 48 49 50

000
ASUS41 KALY 251110
RWRALY

NEW YORK STATE HOURLY WEATHER ROUNDUP
NATIONAL WEATHER SERVICE ALBANY NY
600 AM EST SAT NOV 25 2017

NOTE: "FAIR" INDICATES FEW OR NO CLOUDS BELOW 12,000 FEET WITH NO
SIGNIFICANT WEATHER AND/OR NO OBSTRUCTIONS TO VISIBILITY.

NYZ032-033-038>043-046>054-057>066-NYZ062>081-082-084-251200-
EAST


CITY           SKY/WX    TMP DP  RH WIND       PRES   REMARKS
ALBANY         PTCLDY    40  24  53 S10       29.73F WCI  33
GLENS FALLS    CLOUDY    36  24  62 SW3       29.71F
POUGHKEEPSIE   CLEAR     25  21  85 CALM      29.80F
NEWBURGH       CLEAR     30  27  86 CALM      29.81F
MONTGOMERY     CLEAR     23  20  88 CALM      29.80F
WHITE PLAINS   CLEAR     32  27  81 CALM      29.82F
ISLIP          CLEAR     35  33  92 CALM      29.85F
NEW YORK CITY  CLEAR     43  31  62 SW6       29.84F
CENTRAL PARK   CLEAR     43  29  57 VRB3      29.86F
$$

NYZ005>009-017-018-044>046-055-056-251200-
CENTRAL


CITY           SKY/WX    TMP DP  RH WIND       PRES   REMARKS
FULTON         PTCLDY    47  26  44 S10       29.58F
SYRACUSE       MOCLDY    46  25  43 S10       29.60F
ROME           PTCLDY    40  25  55 E10       29.66F WCI  33
ELMIRA         MOCLDY    32  27  81 CALM      29.65F
BINGHAMTON     CLEAR     38  24  57 S10       29.66F WCI  31
MONTICELLO     CLOUDY    27  22  81 E3        29.77F
$$

NYZ026>034-041>043-087-251200-
NORTH


CITY           SKY/WX    TMP DP  RH WIND       PRES   REMARKS
WATERTOWN      CLEAR     47  26  44 S12G21    29.54F
FORT DRUM      NOT AVBL
OGDENSBURG     FAIR      44  28  52 S12       29.51F
MASSENA        PTCLDY    48  29  47 S15       29.52S
SARANAC LAKE   PTCLDY    40  27  59 SW9       29.56F WCI  34
PLATTSBURGH    CLOUDY    41  25  53 S13       29.59F
$$

NYZ001>004-010>016-019>021-085-251200-
WEST


CITY           SKY/WX    TMP DP  RH WIND       PRES   REMARKS
NIAGARA FALLS  LGT RAIN  53  33  46 SW15G31   29.52F
BUFFALO        CLOUDY    49  29  46 SW10      29.54F
DUNKIRK        CLOUDY    51  30  44 SW16      29.57F
JAMESTOWN      CLOUDY    45  25  45 S13       29.60F
WELLSVILLE     CLEAR     49  24  37 SW13G22   29.61F
ROCHESTER      CLOUDY    51  27  39 SW12      29.55S
PENN YAN       CLOUDY    46  23  40 SW14G21   29.59F
$$

             KEY
       WCI = WIND CHILL INDEX
       VSB = VISIBILITY
       HX  = HEAT INDEX
$$



USA.gov is the U.S. government's official web portal to all federal, state and local government web resources and services.